Location: ČR
(50.0000°N, 15.0000°E)
Time: 12:43:50
(UTC+00:00)

ISS - Pass Details

Date: 03 October 2021
Orbit: 417 x 423 km, 51.6° (Epoch: 16 October)

Event Time Altitude Azimuth Distance (km) Brightness Sun altitude
Rises 18:17:43 0° 285° (WNW) 2,365 1.9 -17.4°
Reaches altitude 10° 18:20:06 10° 270° (W) 1,499 0.2 -17.8°
Maximum altitude 18:22:46 22° 217° (SW) 971 -1.7 -18.2°
Enters shadow 18:24:06 17° 184° (S) 1,127 -1.7 -18.4°
